Regional Weather Roundup
Issued by NWS

Home | Current Version | Previous Version | Graphics & Text | Print | Product List | Glossary On
Versions: 1 2 3 4 5 6 7 8 9 10 11 12 13 14 15 16 17 18 19 20 21 22 23 24 25 26 27 28 29 30 31 32 33 34 35 36 37 38 39 40 41 42 43 44 45 46 47 48 49 50
000
ASUS45 KCYS 211010
RWRWY

WYOMING REGIONAL WEATHER ROUNDUP
NATIONAL WEATHER SERVICE CHEYENNE WY
300 AM MST SUN DEC 21 2014

NOTE:  "FAIR" INDICATES FEW OR NO CLOUDS BELOW 12,000 FEET
WITH NO SIGNIFICANT WEATHER AND/OR OBSTRUCTIONS TO VISIBILITY.

WYZ001-211100-
YELLOWSTONE NATIONAL PARK

CITY           SKY/WX    TMP DP  RH WIND       PRES   REMARKS
LK YELLOWSTONE   N/A     27  23  85 VRB6      29.75F WCI  20
W YELLOWSTONE  NOT AVBL

$$
WYZ002>013-054>058-071-098>099-211100-
NORTHERN WYOMING

CITY           SKY/WX    TMP DP  RH WIND       PRES   REMARKS
JACKSON        CLOUDY    30  30 100 S15       29.80S WCI  19
CODY           MOCLDY    41  27  56 SW14      29.61S
GREYBULL       FAIR      14  11  87 NW3       29.67F
WORLAND        FAIR      11   8  88 VRB3      29.64F
SHERIDAN       FAIR      23  16  74 CALM      29.56F
BUFFALO        FAIR      25  16  68 S8        29.59F WCI  16
GILLETTE       FAIR      34  21  59 MISG      29.61F
HULETT           N/A    N/A N/A N/A MISG        N/A
NEWCASTLE      FAIR      28  23  80 E5        29.71F WCI  23

$$
WYZ014>020-022>026-101>103-211100-
CENTRAL WYOMING

CITY           SKY/WX    TMP DP  RH WIND       PRES   REMARKS
BIG PINEY      LGT SNOW  26  23  88 CALM      29.86F FOG
PINEDALE       LGT SNOW  25  25 100 E3        29.87F
DUBOIS         NOT AVBL
LANDER         FAIR      21  15  78 VRB6      29.69F WCI  13
RIVERTON       FAIR      17  13  84 NW6       29.71F WCI   9
CASPER         FAIR      33  25  72 SW18      29.71F WCI  22
DOUGLAS        FAIR      34  23  64 CALM      29.72F

$$
WYZ021-027>030-104>119-211100-
SOUTHERN WYOMING

CITY           SKY/WX    TMP DP  RH WIND       PRES   REMARKS
EVANSTON       CLOUDY    32  29  88 SW21G32   29.92F WCI  20
KEMMERER       FLURRIES  32  30  93 SW22      29.88R WCI  19
FORT BRIDGER   CLOUDY    35  30  82 W25G38    29.89F WCI  22
ROCK SPRINGS   CLOUDY    31  25  78 S18G26    29.87F WCI  19
DIXON          CLOUDY    32  27  83 S18G26    29.96F WCI  20
RAWLINS        MOCLDY    31  24  75 SW25G32   29.83F WCI  17
SARATOGA       CLOUDY    32  25  74 SW17      29.89F WCI  21
LARAMIE        FAIR      30  19  63 SW22      29.82F WCI  17
CHEYENNE       FAIR      35  19  52 W18       29.80F WCI  24
TORRINGTON     FAIR     N/A N/A N/A SW3       29.75F
PINE BLUFFS    FAIR      27  19  74 SW5       29.81F WCI  21

$$


USA.gov is the U.S. government's official web portal to all federal, state and local government web resources and services.